C/2018 Y1 ( Iwamoto )

Japanese version
Home page
Updated on February 24, 2019

---------------------------------------------------------------------

* Profile

Discovery Date December 18, 2018
Magnitude 12 mag
Discoverer Masayuki Iwamoto (Awa, Tokushima, Japan)

* Pictures

* Orbital Elements

Epoch 2019 Feb. 6.0 TT = JDT 2458520.5
T 2019 Feb. 7.02515 TT                                  MPCW
q   1.2869470            (2000.0)            P               Q
z  +0.0077461      Peri.  358.05238     -0.85995289     +0.47746096
 +/-0.0002591      Node   147.48270     +0.47267621     +0.61181883
e   0.9900312      Incl.  160.40140     +0.19250512     +0.63064154
From 849 observations 2018 Dec. 18-2019 Feb. 15, mean residual 0".7.

* Finding Charts

* Magnitudes Graph

        m1 = 7.0 + 5 log d + 15.0 log r

---------------------------------------------------------------------

The orbital elements are published on M.P.E.C. 2019-D01.
The charts are made with StellaNavigator Ver.10 (AstroArts).
The magnitudes graphs are made with Comet for Windows.

---------------------------------------------------------------------

Copyright(C) Seiichi Yoshida (comet@aerith.net). All rights reserved.